Location: Colebrook
(42.0017°N, 73.0973°W)
Time: 19:28:13
(UTC-05:00)

CAS-4B - Visible Passes

Search period start: 27 November 2021 00:00
Search period end: 07 December 2021 00:00
Orbit: 530 x 539 km, 43.0° (Epoch: 27 November)

Date Brightness Start Highest point End Pass type
(mag) Time Alt. Az. Time Alt. Az. Time Alt. Az.
27 Nov ? 04:13:40 19° SE 04:13:40 19° SE 04:14:55 10° SE visible
27 Nov ? 05:49:25 10° SW 05:50:29 11° SW 05:51:31 10° SSW visible
28 Nov ? 04:03:28 11° SE 04:03:28 11° SE 04:03:43 10° SE visible
05 Dec ? 18:09:52 10° S 18:11:19 13° SSE 18:11:19 13° SSE visible
06 Dec ? 17:58:06 10° S 18:00:48 17° SE 18:01:04 17° SE visible
06 Dec ? 19:36:22 10° WSW 19:36:22 10° WSW 19:36:22 10° WSW visible
